TimeEDT,TemperatureF,Dew PointF,Humidity,Sea Level PressureIn,VisibilityMPH,Wind Direction,Wind SpeedMPH,Gust SpeedMPH,PrecipitationIn,Events,Conditions,WindDirDegrees,DateUTC
12:53 AM,51.1,37.9,61,30.27,10.0,Calm,Calm,-,N/A,,Clear,0,2013-04-28 04:53:00
1:53 AM,48.9,37.9,66,30.27,10.0,Calm,Calm,-,N/A,,Clear,0,2013-04-28 05:53:00
2:53 AM,50.0,37.9,63,30.24,10.0,Calm,Calm,-,N/A,,Clear,0,2013-04-28 06:53:00
3:53 AM,46.9,37.9,71,30.22,10.0,Calm,Calm,-,N/A,,Clear,0,2013-04-28 07:53:00
4:53 AM,46.0,37.9,73,30.23,10.0,Calm,Calm,-,N/A,,Clear,0,2013-04-28 08:53:00
5:53 AM,45.0,37.9,76,30.22,10.0,Calm,Calm,-,N/A,,Clear,0,2013-04-28 09:53:00
6:53 AM,45.0,37.9,76,30.24,10.0,Calm,Calm,-,N/A,,Clear,0,2013-04-28 10:53:00
7:53 AM,54.0,42.1,64,30.23,10.0,Calm,Calm,-,N/A,,Clear,0,2013-04-28 11:53:00
9:53 AM,59.0,35.1,41,30.23,10.0,SSE,9.2,20.7,N/A,,Overcast,160,2013-04-28 13:53:00
10:53 AM,59.0,33.1,38,30.24,10.0,South,13.8,20.7,N/A,,Overcast,170,2013-04-28 14:53:00
11:53 AM,57.9,35.1,42,30.25,10.0,SSE,12.7,18.4,0.00,Rain,Light Rain,160,2013-04-28 15:53:00
12:53 PM,54.0,43.0,66,30.25,9.0,SSE,8.1,-,0.01,Rain,Light Rain,160,2013-04-28 16:53:00
1:53 PM,52.0,46.0,80,30.25,4.0,SSE,9.2,-,0.03,Rain,Light Rain,160,2013-04-28 17:53:00
2:53 PM,52.0,46.9,83,30.24,5.0,SSE,5.8,-,0.07,Rain,Light Rain,150,2013-04-28 18:53:00
3:53 PM,53.1,48.9,86,30.21,7.0,SE,6.9,-,0.02,Rain,Light Rain,140,2013-04-28 19:53:00
4:53 PM,52.0,48.0,86,30.19,10.0,SE,3.5,-,0.02,,Unknown,140,2013-04-28 20:53:00
5:53 PM,52.0,48.9,89,30.17,5.0,Calm,Calm,-,0.01,Rain,Light Rain,0,2013-04-28 21:53:00
6:53 PM,52.0,50.0,93,30.14,5.0,Calm,Calm,-,0.01,,Overcast,0,2013-04-28 22:53:00
7:53 PM,51.1,48.9,92,30.13,6.0,Calm,Calm,-,N/A,,Overcast,0,2013-04-28 23:53:00
8:53 PM,52.0,48.9,89,30.14,8.0,Calm,Calm,-,N/A,,Overcast,0,2013-04-29 00:53:00
9:53 PM,51.1,48.9,92,30.14,5.0,Calm,Calm,-,N/A,,Overcast,0,2013-04-29 01:53:00
10:53 PM,52.0,48.9,89,30.14,7.0,Calm,Calm,-,N/A,,Overcast,0,2013-04-29 02:53:00
11:53 PM,53.1,46.9,80,30.12,10.0,SE,3.5,-,N/A,,Overcast,130,2013-04-29 03:53:00